Location: Gensac
(43.2177°N, 1.1313°E)
Time: 23:26:53
(UTC+00:00)

Cosmos 2195 Rocket - Pass Details

Date: 08 December 2025
Orbit: 947 x 993 km, 82.9° (Epoch: 19 January)

Event Time Altitude Azimuth Distance (km) Brightness Sun altitude
Rises 05:20:00 0° 188° (S) 3,651 7.6 -20.2°
Reaches altitude 10° 05:22:28 10° 189° (S) 2,714 6.9 -19.7°
Maximum altitude 05:28:43 83° 277° (W) 996 4.4 -18.6°
Drops below altitude 10° 05:35:04 10° 6° (N) 2,759 6.8 -17.5°
Sets 05:37:37 0° 8° (N) 3,715 7.5 -17.1°
